Boussy-Saint-Antoine, France

4:59 AM CET on March 24, 2019 (GMT +0100)
Boussy-Saint-Antoine

Weather History for 07149 - April, 2017

Change the Weather History Date:

Thursday, April 13, 2017

  Actual Average Record
Temperature  
Mean Temperature 51 °F -  
Max Temperature 60 °F 61 °F - ()
Min Temperature 42 °F 44 °F - ()
Degree Days  
Heating Degree Days 14    
Growing Degree Days 1 (Base 50)    
Moisture  
Dew Point 42 °F    
Average Humidity 65    
Maximum Humidity 87    
Minimum Humidity 39    
Precipitation  
Precipitation 0.00 in - - ()
Sea Level Pressure  
Sea Level Pressure 30.08 in    
Wind  
Wind Speed 6 mph ()    
Max Wind Speed 12 mph    
Max Gust Speed -    
Visibility 8.4 miles    
Events      
T = Trace of Precipitation, MM = Missing Value Source: Averaged Metar Reports

Daily Weather History Graph

Daily Weather History Graph

Search for Another Location

Airport or City:

Astronomy

Apr. 13, 2017 Rise Set
Actual Time 7:03 AM CEST 8:39 PM CEST
Civil Twilight 6:30 AM CEST 9:12 PM CEST
Nautical Twilight 5:50 AM CEST 9:52 PM CEST
Astronomical Twilight 5:06 AM CEST 10:36 PM CEST
Moon 10:55 PM CEST (4/13) 8:27 AM CEST (4/13)
Length of Visible Light 14h 41m
Length of Day
13h 35m
Waning Gibbous, 96% of the Moon is Illuminated
Apr 13
Waning Gibbous
Apr 19
Last Quarter
Apr 26
New
May 3
First Quarter
May 10
Full

Hourly Weather History & Observations

Time (CEST) Temp. Windchill Dew Point Humidity Pressure Visibility Wind Dir Wind Speed Gust Speed Precip Events Conditions
12:00 AM 50 °F - 40 °F 58% 30.11 in 19 mi NNW 10.4 mph - -   Scattered Clouds
12:00 AM 50.0 °F - 39.2 °F 66% 30.09 in 6.2 mi NNW 10.4 mph - N/A   Partly Cloudy
12:30 AM 50.0 °F - 39.2 °F 66% 30.09 in 6.2 mi NW 11.5 mph - N/A   Partly Cloudy
1:00 AM 49 °F - 39 °F 59% 30.12 in 19 mi NW 5.8 mph - -   Mostly Cloudy
1:00 AM 48.2 °F - 39.2 °F 71% 30.09 in 6.2 mi NW 5.8 mph - N/A   Mostly Cloudy
1:30 AM 48.2 °F - 39.2 °F 71% 30.09 in - WNW 3.5 mph - N/A   Clear
2:00 AM 47 °F - 39 °F 65% 30.10 in 19 mi NW 6.9 mph - -  
2:00 AM 46.4 °F 42.9 °F 39.2 °F 76% 30.09 in - NW 6.9 mph - N/A   Clear
2:30 AM 44.6 °F 41.4 °F 39.2 °F 81% 30.09 in - WNW 5.8 mph - N/A   Clear
3:00 AM 44 °F - 39 °F 76% 30.10 in 12 mi West 4.6 mph - -  
3:00 AM 44.6 °F 42.2 °F 39.2 °F 81% 30.06 in - West 4.6 mph - N/A   Clear
3:30 AM 44.6 °F 43.1 °F 39.2 °F 81% 30.06 in - Variable 3.5 mph - N/A   Clear
4:00 AM 43 °F - 38 °F 77% 30.09 in 12 mi WNW 5.8 mph - -  
4:00 AM 42.8 °F 39.3 °F 39.2 °F 87% 30.06 in - WNW 5.8 mph - N/A   Clear
4:30 AM 42.8 °F 40.1 °F 39.2 °F 87% 30.06 in 6.2 mi WNW 4.6 mph - N/A   Mostly Cloudy
5:00 AM 45 °F - 42 °F 84% 30.09 in 12 mi NW 4.6 mph - -   Mostly Cloudy
5:00 AM 44.6 °F 42.2 °F 41.0 °F 87% 30.06 in 6.2 mi WNW 4.6 mph - N/A   Mostly Cloudy
5:30 AM 46.4 °F 42.9 °F 41.0 °F 81% 30.06 in 6.2 mi NW 6.9 mph - N/A   Mostly Cloudy
6:00 AM 46 °F - 42 °F 80% 30.09 in 12 mi NW 8.1 mph - -   Mostly Cloudy
6:00 AM 46.4 °F 42.4 °F 41.0 °F 81% 30.06 in 6.2 mi NW 8.1 mph - N/A   Mostly Cloudy
6:30 AM 46.4 °F 43.5 °F 41.0 °F 81% 30.06 in 6.2 mi WNW 5.8 mph - N/A   Mostly Cloudy
7:00 AM 46 °F - 42 °F 81% 30.09 in 12 mi WNW 5.8 mph - -   Mostly Cloudy
7:00 AM 46.4 °F 43.5 °F 42.8 °F 87% 30.06 in 6.2 mi WNW 5.8 mph - N/A   Mostly Cloudy
7:30 AM 46.4 °F 42.4 °F 42.8 °F 87% 30.06 in 6.2 mi NW 8.1 mph - N/A   Mostly Cloudy
8:00 AM 47 °F - 43 °F 79% 30.10 in 7 mi NW 5.8 mph - -   Partly Cloudy
8:00 AM 46.4 °F 43.5 °F 42.8 °F 87% 30.09 in 6.2 mi NW 5.8 mph - N/A   Mostly Cloudy
8:30 AM 48.2 °F - 42.8 °F 82% 30.09 in 6.2 mi WNW 6.9 mph - N/A   Mostly Cloudy
9:00 AM 49 °F - 43 °F 74% 30.11 in 7 mi NW 5.8 mph - -   Scattered Clouds
9:00 AM 50.0 °F - 42.8 °F 76% 30.09 in 6.2 mi NW 5.8 mph - N/A   Mostly Cloudy
9:10 AM 50.0 °F - 44.6 °F 82% 30.09 in 6.2 mi WNW 5.8 mph - N/A   Mostly Cloudy
9:30 AM 51.8 °F - 44.6 °F 76% 30.09 in 6.2 mi WNW 4.6 mph - N/A   Mostly Cloudy
10:00 AM 52 °F - 43 °F 64% 30.12 in 7 mi West 6.9 mph - -   Scattered Clouds
10:00 AM 51.8 °F - 42.8 °F 71% 30.09 in 6.2 mi West 6.9 mph - N/A   Mostly Cloudy
10:30 AM 53.6 °F - 42.8 °F 67% 30.09 in 6.2 mi West 5.8 mph - N/A   Scattered Clouds
11:00 AM 54 °F - 44 °F 60% 30.12 in 7 mi WNW 6.9 mph - -   Mostly Cloudy
11:00 AM 53.6 °F - 44.6 °F 72% 30.09 in 6.2 mi WNW 6.9 mph - N/A   Mostly Cloudy
11:30 AM 55.4 °F - 44.6 °F 67% 30.09 in 6.2 mi Variable 5.8 mph - N/A   Mostly Cloudy
12:00 PM 55 °F - 44 °F 57% 30.12 in 9 mi NNW 5.8 mph - -   Mostly Cloudy
12:00 PM 55.4 °F - 44.6 °F 67% 30.09 in 6.2 mi NNW 5.8 mph - N/A   Mostly Cloudy
12:30 PM 57.2 °F - 44.6 °F 63% 30.09 in 6.2 mi Variable 4.6 mph - N/A   Scattered Clouds
1:00 PM 58 °F - 44 °F 48% 30.11 in 12 mi NNE 3.5 mph - -   Mostly Cloudy
1:00 PM 59.0 °F - 42.8 °F 55% 30.09 in 6.2 mi Variable 3.5 mph - N/A   Mostly Cloudy
1:30 PM 57.2 °F - 42.8 °F 59% 30.09 in 6.2 mi Variable 2.3 mph - N/A   Mostly Cloudy
2:00 PM 58 °F - 42 °F 45% 30.11 in 12 mi NE 6.9 mph - -   Mostly Cloudy
2:00 PM 57.2 °F - 42.8 °F 59% 30.09 in 6.2 mi NE 6.9 mph - N/A   Mostly Cloudy
2:30 PM 57.2 °F - 41.0 °F 55% 30.09 in 6.2 mi Variable 2.3 mph - N/A   Mostly Cloudy
3:00 PM 59 °F - 41 °F 40% 30.09 in 12 mi WNW 3.5 mph - -   Mostly Cloudy
3:00 PM 59.0 °F - 41.0 °F 51% 30.06 in 6.2 mi Variable 3.5 mph - N/A   Mostly Cloudy
3:30 PM 59.0 °F - 42.8 °F 55% 30.06 in 6.2 mi North 5.8 mph - N/A   Mostly Cloudy
4:00 PM 60 °F - 42 °F 39% 30.07 in 12 mi NNW 5.8 mph - -   Mostly Cloudy
4:00 PM 60.8 °F - 41.0 °F 48% 30.06 in 6.2 mi NNW 5.8 mph - N/A   Mostly Cloudy
4:30 PM 59.0 °F - 41.0 °F 51% 30.06 in 6.2 mi NW 6.9 mph - N/A   Mostly Cloudy
5:00 PM 59 °F - 42 °F 41% 30.06 in 12 mi NNW 5.8 mph - -   Mostly Cloudy
5:00 PM 59.0 °F - 41.0 °F 51% 30.06 in 6.2 mi NNW 5.8 mph - N/A   Mostly Cloudy
5:30 PM 59.0 °F - 41.0 °F 51% 30.04 in 6.2 mi NW 5.8 mph - N/A   Mostly Cloudy
6:00 PM 59 °F - 43 °F 43% 30.05 in 12 mi North 8.1 mph - -   Mostly Cloudy
6:00 PM 59.0 °F - 42.8 °F 55% 30.04 in 6.2 mi NNW 6.9 mph - N/A   Mostly Cloudy
6:30 PM 59.0 °F - 42.8 °F 55% 30.04 in 6.2 mi WNW 5.8 mph - N/A   Mostly Cloudy
7:00 PM 58 °F - 42 °F 44% 30.05 in 12 mi NW 6.9 mph - -   Mostly Cloudy
7:00 PM 59.0 °F - 42.8 °F 55% 30.04 in 6.2 mi NW 6.9 mph - N/A   Mostly Cloudy
7:30 PM 57.2 °F - 42.8 °F 59% 30.04 in 6.2 mi NW 8.1 mph - N/A   Mostly Cloudy
8:00 PM 57 °F - 43 °F 48% 30.06 in 12 mi NW 5.8 mph - -   Mostly Cloudy
8:00 PM 57.2 °F - 42.8 °F 59% 30.04 in 6.2 mi NW 5.8 mph - N/A   Mostly Cloudy
8:30 PM 57.2 °F - 42.8 °F 59% 30.04 in 6.2 mi WNW 5.8 mph - N/A   Mostly Cloudy
9:00 PM 56 °F - 43 °F 50% 30.06 in 12 mi WNW 4.6 mph - -   Mostly Cloudy
9:00 PM 55.4 °F - 42.8 °F 63% 30.04 in 6.2 mi WNW 4.6 mph - N/A   Mostly Cloudy
9:30 PM 55.4 °F - 42.8 °F 63% 30.06 in - WNW 5.8 mph - N/A   Clear
10:00 PM 54 °F - 42 °F 54% 30.07 in 12 mi NW 3.5 mph - -   Mostly Cloudy
10:00 PM 53.6 °F - 42.8 °F 67% 30.06 in - Variable 3.5 mph - N/A   Clear
10:30 PM 53.6 °F - 42.8 °F 67% 30.06 in - NNW 3.5 mph - N/A   Clear
11:00 PM 53 °F - 42 °F 57% 30.07 in 12 mi NNW 3.5 mph - -   Mostly Cloudy
11:00 PM 53.6 °F - 42.8 °F 67% 30.06 in - NNW 3.5 mph - N/A   Clear
11:30 PM 53.6 °F - 42.8 °F 67% 30.06 in - ENE 4.6 mph - N/A   Clear